STARLINK-32169 (60589 NORAD) Tracking and Keplerian Element Data

This shows tracking and keplerian element data for the satellite.

Feedback or suggestion? Click here.




ElementValue
Catalog60589
NameSTARLINK-32169
Epoch Orbit948
Epoch Day286.68564534
Epoch Year2024
RAAN170.9127
Inclination53.1599
Eccentricity7.47E-05
Argument of Perigee53.479
Mean Anonmoly306.6284
Mean Motion15.39620709
Decay Rate-1.24E-06
L11 60589U 24150G 24286.68564534 -.00000124 00000+0 68843-5 0 9994
L22 60589 53.1599 170.9127 0000747 53.4790 306.6284 15.39620709 9487



Live tracking and technical data element details for STARLINK-32169 (NORAD 60589). STARLINK-32169 can be tracked NOW for your location showing map with azimuth and elevation plus other details from your city location.







IsCatalogInMostPopularTable: catalog: 60589, numindb: 8
Update: records affected: 1



GetName: 60589 STARLINK-32169

Hit Count: updated at: Tue, 03 Dec 2024 01:27:45 GMT